Weather in Yunga

Russia / Chuvash Republic     56°02′52″N   46°38′17″E
temp.,
°C
wind,
m/s
gust,
m/s
humid.,
%
clouds,
%
prec.,
mm/h
press.,
hPa
HPBL,
m
9 may, sun
sun900:00+10se6138867 0.0 1011285
03:00+9sse41091100 0.0 1010175
06:00+12se41083100 0.0 1009261
09:00+17sse71366100 0.0 1009674
12:00+19sse81462100 0.0 10091335
15:00+15sse71377100 0.4 1009494
18:00+17sse61371100 0.6 1009557
21:00+15sse5128199 1.8 1011272
10 may, mon
mon1000:00+11wsw379699 0.0 1013186
03:00+10w3796100 0.2 1016269
06:00+10nw3495100 0.4 1018214
09:00+10nnw4594100 0.6 1020261
12:00+11n6689100 0.1 1022439
15:00+11n568699 0.1 1024422
18:00+10n6889100 0.0 1025349
21:00+7nne5119790 0.0 1026278
11 may, tue
tue1100:00+7nne41098100 0.0 1027243
03:00+6nne51098100 0.0 1027222
06:00+8nne599177 0.0 1028246
09:00+14ne577254 0.0 1029493
12:00+19ne456044 0.0 1028891
15:00+21ne455593 0.0 10281257
18:00+19ne4771100 0.1 1028210
21:00+14ne41186100 0.1 1029191
12 may, wed
wed1200:00+13ene41191100 0.0 1029206
03:00+12ene499332 0.0 1029159
06:00+14e4985100 0.0 1029219
09:00+19ese5762100 0.0 1029435
12:00+22ese565266 0.0 10291030
15:00+23ese574714 0.0 10281864
18:00+20ese366516 0.0 1028156
21:00+15ese356787 0.0 102856
13 may, thu
thu1300:00+14ese356539 0.0 102866
03:00+13ese3669100 0.0 102875
06:00+15ese487541 0.0 1028192
09:00+19se585898 0.0 1028543
12:00+22se684484 0.0 10271399
15:00+23se6847100 0.0 10261554
18:00+19se3867100 0.0 1026203
21:00+15se456892 0.0 102674